Time,TemperatureF,DewpointF,PressureIn,WindDirection,WindDirectionDegrees,WindSpeedMPH,WindSpeedGustMPH,Humidity,HourlyPrecipIn,Conditions,Clouds,dailyrainin,SolarRadiationWatts/m^2,SoftwareType,DateUTC
2013-11-02 00:12:00,37.0,37.0,-100.00,SSW,213,0.0,0.0,99,0.00,,,0.00,0.000000,,2013-11-02 07:12:00,
2013-11-02 00:21:00,37.0,37.0,-100.00,SSW,213,0.0,0.0,99,0.00,,,0.00,0.000000,,2013-11-02 07:21:00,
2013-11-02 00:32:00,37.0,37.0,-100.00,SSW,213,0.0,0.0,99,0.00,,,0.00,0.000000,,2013-11-02 07:32:00,
2013-11-02 00:42:00,37.0,37.0,-100.00,SSW,213,0.0,0.0,99,0.00,,,0.00,0.000000,,2013-11-02 07:42:00,
2013-11-02 01:12:00,37.0,37.0,-100.00,WSW,256,1.0,4.0,99,0.00,,,0.00,0.000000,,2013-11-02 08:12:00,
2013-11-02 01:21:00,37.0,37.0,-100.00,WSW,256,1.0,4.0,99,0.00,,,0.00,0.000000,,2013-11-02 08:21:00,
2013-11-02 01:31:00,37.0,37.0,-100.00,WSW,256,1.0,4.0,99,0.00,,,0.00,0.000000,,2013-11-02 08:31:00,
2013-11-02 01:42:00,37.0,37.0,-100.00,WSW,256,1.0,4.0,99,0.00,,,0.00,0.000000,,2013-11-02 08:42:00,
2013-11-02 02:21:00,38.0,37.0,-100.00,SW,233,2.0,6.0,98,0.00,,,0.00,0.000000,,2013-11-02 09:21:00,
2013-11-02 02:33:00,38.0,37.0,-100.00,SW,233,2.0,6.0,98,0.00,,,0.00,0.000000,,2013-11-02 09:33:00,
2013-11-02 02:43:00,38.0,37.0,-100.00,SW,233,2.0,6.0,98,0.00,,,0.00,0.000000,,2013-11-02 09:43:00,
2013-11-02 03:12:00,36.0,36.0,-100.00,South,184,0.0,5.0,99,0.00,,,0.00,0.000000,,2013-11-02 10:12:00,
2013-11-02 03:23:00,36.0,36.0,-100.00,South,184,0.0,5.0,99,0.00,,,0.00,0.000000,,2013-11-02 10:23:00,
2013-11-02 03:32:00,36.0,36.0,-100.00,South,184,0.0,5.0,99,0.00,,,0.00,0.000000,,2013-11-02 10:32:00,
2013-11-02 03:42:00,36.0,36.0,-100.00,South,184,0.0,5.0,99,0.00,,,0.00,0.000000,,2013-11-02 10:42:00,
2013-11-02 04:12:00,35.0,34.0,-100.00,SW,228,1.0,5.0,98,0.00,,,0.00,0.000000,,2013-11-02 11:12:00,
2013-11-02 04:22:00,35.0,34.0,-100.00,SW,228,1.0,5.0,98,0.00,,,0.00,0.000000,,2013-11-02 11:22:00,
2013-11-02 04:33:00,35.0,34.0,-100.00,SW,228,1.0,5.0,98,0.00,,,0.00,0.000000,,2013-11-02 11:33:00,
2013-11-02 04:42:00,35.0,34.0,-100.00,SW,228,1.0,5.0,98,0.00,,,0.00,0.000000,,2013-11-02 11:42:00,
2013-11-02 05:11:00,37.0,35.0,-100.00,WSW,242,4.0,7.0,91,0.00,,,0.00,0.000000,,2013-11-02 12:11:00,
2013-11-02 05:21:00,37.0,35.0,-100.00,WSW,242,4.0,7.0,91,0.00,,,0.00,0.000000,,2013-11-02 12:21:00,
2013-11-02 05:32:00,37.0,35.0,-100.00,WSW,242,4.0,7.0,91,0.00,,,0.00,0.000000,,2013-11-02 12:32:00,
2013-11-02 05:42:00,37.0,35.0,-100.00,WSW,242,4.0,7.0,91,0.00,,,0.00,0.000000,,2013-11-02 12:42:00,
2013-11-02 06:12:00,36.0,34.0,-100.00,WSW,238,3.0,6.0,94,0.00,,,0.00,0.000000,,2013-11-02 13:12:00,
2013-11-02 06:22:00,36.0,34.0,-100.00,WSW,238,3.0,6.0,94,0.00,,,0.00,0.000000,,2013-11-02 13:22:00,
2013-11-02 06:32:00,36.0,34.0,-100.00,WSW,238,3.0,6.0,94,0.00,,,0.00,0.000000,,2013-11-02 13:32:00,
2013-11-02 06:42:00,36.0,34.0,-100.00,WSW,238,3.0,6.0,94,0.00,,,0.00,0.000000,,2013-11-02 13:42:00,
2013-11-02 07:21:00,38.0,33.0,-100.00,SW,232,1.0,6.0,83,0.00,,,0.00,0.000000,,2013-11-02 14:21:00,
2013-11-02 07:32:00,38.0,33.0,-100.00,SW,232,1.0,6.0,83,0.00,,,0.00,0.000000,,2013-11-02 14:32:00,
2013-11-02 07:42:00,38.0,33.0,-100.00,SW,232,1.0,6.0,83,0.00,,,0.00,0.000000,,2013-11-02 14:42:00,
2013-11-02 08:11:00,37.0,31.0,-100.00,SSW,209,1.0,10.0,80,0.00,,,0.00,6.000000,,2013-11-02 15:11:00,
2013-11-02 08:22:00,37.0,31.0,-100.00,SSW,209,1.0,10.0,80,0.00,,,0.00,6.000000,,2013-11-02 15:22:00,
2013-11-02 08:33:00,37.0,31.0,-100.00,SSW,209,1.0,10.0,80,0.00,,,0.00,6.000000,,2013-11-02 15:33:00,
2013-11-02 08:43:00,37.0,31.0,-100.00,SSW,209,1.0,10.0,80,0.00,,,0.00,6.000000,,2013-11-02 15:43:00,
2013-11-02 11:12:00,51.0,34.0,-100.00,WSW,238,6.0,12.0,53,-99.99,,,-99.99,467.000000,,2013-11-02 18:12:00,
2013-11-02 11:21:00,51.0,34.0,-100.00,WSW,238,6.0,12.0,53,-99.99,,,-99.99,467.000000,,2013-11-02 18:21:00,
2013-11-02 11:32:00,51.0,34.0,-100.00,WSW,238,6.0,12.0,53,-99.99,,,-99.99,467.000000,,2013-11-02 18:32:00,
2013-11-02 11:42:00,51.0,34.0,-100.00,WSW,238,6.0,12.0,53,-99.99,,,-99.99,467.000000,,2013-11-02 18:42:00,
2013-11-02 12:42:00,58.0,36.0,-100.00,NE,34,4.0,11.0,43,0.00,,,0.00,514.000000,,2013-11-02 19:42:00,
2013-11-02 13:21:00,60.0,35.0,-100.00,NNW,334,5.0,10.0,39,0.00,,,0.00,631.000000,,2013-11-02 20:21:00,
2013-11-02 13:32:00,60.0,35.0,-100.00,NNW,334,5.0,10.0,39,0.00,,,0.00,631.000000,,2013-11-02 20:32:00,
2013-11-02 13:42:00,60.0,35.0,-100.00,NNW,334,5.0,10.0,39,0.00,,,0.00,631.000000,,2013-11-02 20:42:00,
2013-11-02 14:21:00,62.0,35.0,-100.00,East,97,3.0,8.0,36,0.00,,,0.00,523.000000,,2013-11-02 21:21:00,
2013-11-02 14:33:00,62.0,35.0,-100.00,East,97,3.0,8.0,36,0.00,,,0.00,523.000000,,2013-11-02 21:33:00,
2013-11-02 14:43:00,62.0,35.0,-100.00,East,97,3.0,8.0,36,0.00,,,0.00,523.000000,,2013-11-02 21:43:00,
2013-11-02 15:13:00,62.0,31.0,-100.00,SE,127,3.0,8.0,31,0.00,,,0.00,419.000000,,2013-11-02 22:13:00,
2013-11-02 15:24:00,62.0,31.0,-100.00,SE,127,3.0,8.0,31,0.00,,,0.00,419.000000,,2013-11-02 22:24:00,
2013-11-02 15:34:00,62.0,31.0,-100.00,SE,127,3.0,8.0,31,0.00,,,0.00,419.000000,,2013-11-02 22:34:00,
2013-11-02 15:44:00,62.0,31.0,-100.00,SE,127,3.0,8.0,31,0.00,,,0.00,419.000000,,2013-11-02 22:44:00,
2013-11-02 16:12:00,61.0,33.0,-100.00,NE,38,4.0,9.0,35,0.00,,,0.00,305.000000,,2013-11-02 23:12:00,
2013-11-02 16:22:00,61.0,33.0,-100.00,NE,38,4.0,9.0,35,0.00,,,0.00,305.000000,,2013-11-02 23:22:00,
2013-11-02 16:33:00,61.0,33.0,-100.00,NE,38,4.0,9.0,35,0.00,,,0.00,305.000000,,2013-11-02 23:33:00,
2013-11-02 16:42:00,61.0,33.0,-100.00,NE,38,4.0,9.0,35,0.00,,,0.00,305.000000,,2013-11-02 23:42:00,
2013-11-02 17:11:00,58.0,33.0,-100.00,SE,138,2.0,7.0,38,0.00,,,0.00,134.000000,,2013-11-03 00:11:00,
2013-11-02 17:21:00,58.0,33.0,-100.00,SE,138,2.0,7.0,38,0.00,,,0.00,134.000000,,2013-11-03 00:21:00,
2013-11-02 17:32:00,58.0,33.0,-100.00,SE,138,2.0,7.0,38,0.00,,,0.00,134.000000,,2013-11-03 00:32:00,
2013-11-02 17:42:00,58.0,33.0,-100.00,SE,138,2.0,7.0,38,0.00,,,0.00,134.000000,,2013-11-03 00:42:00,
2013-11-02 18:11:00,55.0,34.0,-100.00,SSE,152,3.0,4.0,45,0.00,,,0.00,59.000000,,2013-11-03 01:11:00,
2013-11-02 18:21:00,55.0,34.0,-100.00,SSE,152,3.0,4.0,45,0.00,,,0.00,59.000000,,2013-11-03 01:21:00,
2013-11-02 18:32:00,55.0,34.0,-100.00,SSE,152,3.0,4.0,45,0.00,,,0.00,59.000000,,2013-11-03 01:32:00,
2013-11-02 18:42:00,55.0,34.0,-100.00,SSE,152,3.0,4.0,45,0.00,,,0.00,59.000000,,2013-11-03 01:42:00,
2013-11-02 19:21:00,50.0,33.0,-100.00,West,267,2.0,9.0,52,0.00,,,0.00,3.000000,,2013-11-03 02:21:00,
2013-11-02 19:32:00,50.0,33.0,-100.00,West,267,2.0,9.0,52,0.00,,,0.00,3.000000,,2013-11-03 02:32:00,
2013-11-02 19:43:00,50.0,33.0,-100.00,West,267,2.0,9.0,52,0.00,,,0.00,3.000000,,2013-11-03 02:43:00,
2013-11-02 20:11:00,55.0,31.0,-100.00,West,261,7.0,16.0,39,0.00,,,0.00,0.000000,,2013-11-03 03:11:00,
2013-11-02 20:21:00,55.0,31.0,-100.00,West,261,7.0,16.0,39,0.00,,,0.00,0.000000,,2013-11-03 03:21:00,
2013-11-02 20:33:00,55.0,31.0,-100.00,West,261,7.0,16.0,39,0.00,,,0.00,0.000000,,2013-11-03 03:33:00,
2013-11-02 20:44:00,55.0,31.0,-100.00,West,261,7.0,16.0,39,0.00,,,0.00,0.000000,,2013-11-03 03:44:00,
2013-11-02 21:02:00,-999.0,-99.9,-100.00,SSW,202,3.0,14.0,-999,-99.99,,,-99.99,0.000000,,2013-11-03 04:02:00,
2013-11-02 21:13:00,48.0,32.0,-100.00,SSW,202,3.0,14.0,53,0.00,,,0.00,0.000000,,2013-11-03 04:13:00,
2013-11-02 21:23:00,48.0,32.0,-100.00,SSW,202,3.0,14.0,53,0.00,,,0.00,0.000000,,2013-11-03 04:23:00,
2013-11-02 21:34:00,48.0,32.0,-100.00,SSW,202,3.0,14.0,53,0.00,,,0.00,0.000000,,2013-11-03 04:34:00,
2013-11-02 21:44:00,48.0,32.0,-100.00,SSW,202,3.0,14.0,53,0.00,,,0.00,0.000000,,2013-11-03 04:44:00,
2013-11-02 22:13:00,47.0,30.0,-100.00,South,182,0.0,6.0,51,0.00,,,0.00,0.000000,,2013-11-03 05:13:00,
2013-11-02 22:23:00,47.0,30.0,-100.00,South,182,0.0,6.0,51,0.00,,,0.00,0.000000,,2013-11-03 05:23:00,
2013-11-02 22:34:00,47.0,30.0,-100.00,South,182,0.0,6.0,51,0.00,,,0.00,0.000000,,2013-11-03 05:34:00,
2013-11-02 22:43:00,47.0,30.0,-100.00,South,182,0.0,6.0,51,0.00,,,0.00,0.000000,,2013-11-03 05:43:00,
2013-11-02 23:12:00,46.0,31.0,-100.00,NW,312,1.0,8.0,56,0.00,,,0.00,0.000000,,2013-11-03 06:12:00,
2013-11-02 23:23:00,46.0,31.0,-100.00,NW,312,1.0,8.0,56,0.00,,,0.00,0.000000,,2013-11-03 06:23:00,
2013-11-02 23:32:00,46.0,31.0,-100.00,NW,312,1.0,8.0,56,0.00,,,0.00,0.000000,,2013-11-03 06:32:00,
2013-11-02 23:43:00,46.0,31.0,-100.00,NW,312,1.0,8.0,56,0.00,,,0.00,0.000000,,2013-11-03 06:43:00,